RS-38S
1 57189U 23091Z   26126.82676065  .00012683  00000-0  37859-3 0  9997
2 57189  97.5105 195.5231 0007073 206.3675 153.7209 15.34740433158343
SONATE-2
1 59112U 24043Q   26126.36776903  .00031240  00000-0  45228-3 0  9993
2 59112  97.5496 274.3124 0006221 359.7001   0.4249 15.55820028121389
GRBBeta
1 60237U 24128C   26126.86781154  .00003527  00000-0  24787-3 0  9990
2 60237  61.9913   1.1976 0045946 126.0580 234.4783 15.06306480100042
Curium One
1 60242U 24128H   26126.84171992  .00006694  00000-0  39262-3 0  9999
2 60242  61.9801 352.1385 0045656 122.5211 238.0308 15.11856676100201
ROBUSTA-3A
1 60243U 24128J   26126.84999413  .00006415  00000-0  38497-3 0  9996
2 60243  61.9876 354.3543 0046721 119.9349 240.6398 15.11039807100173
CatSat
1 60246U 24125J   26126.66741542  .00041122  00000-0  61999-3 0  9991
2 60246  97.2130 338.7657 0022085 338.8558  21.1781 15.54385998100938
HYPERVIEW-1G (RS66S)
1 61772U 24199AP  26126.84779054  .00073479  00000-0  68535-3 0  9999
2 61772  97.2952   4.7713 0008335  79.8885 280.3316 15.67061987128188
AO-123
1 61781U 24199AY  26126.84483714  .00006772  00000-0  20052-3 0  9998
2 61781  97.3051 355.8951 0015920  96.9947 263.3108 15.35075835127585
JINJUSat 1B
1 63210U 25052A   26126.69218750  .00013609  00000-0  43932-3 0  9994
2 63210  97.4046  23.4251 0002142 192.6848 167.4340 15.32244383 63748
NUSHSAT 1
1 63211U 25052B   26126.47194738  .00017625  00000-0  53096-3 0  9994
2 63211  97.4020  23.6378 0001797 190.5608 169.5597 15.34392633 63740
TEVEL2-4
1 63213U 25052D   26126.69086007  .00015393  00000-0  48192-3 0  9990
2 63213  97.3942  23.0522 0000767 194.8848 165.2372 15.33197233 63751
TEVEL2-5
1 63214U 25052E   26126.64171870  .00015497  00000-0  48754-3 0  9998
2 63214  97.3939  22.9620 0000776 195.7967 164.3251 15.33042552 63745
TEVEL2-6
1 63215U 25052F   26126.65304130  .00015759  00000-0  49629-3 0  9990
2 63215  97.3944  22.9583 0000824 208.0235 152.0963 15.33005078 63746
TEVEL2-1
1 63217U 25052H   26126.66839295  .00015466  00000-0  49454-3 0  9999
2 63217  97.3920  22.6454 0000443 264.1902  95.9289 15.32520912 63730
TEVEL2-3
1 63218U 25052J   26126.59911419  .00015584  00000-0  49759-3 0  9990
2 63218  97.3919  22.5931 0000510 268.2723  91.8461 15.32565308 63723
TEVEL2-2
1 63219U 25052K   26126.66889642  .00015227  00000-0  48688-3 0  9995
2 63219  97.3920  22.6471 0000494 269.7178  90.4007 15.32526459 63733
TEVEL2-9
1 63237U 25052AD  26125.67911195  .00017826  00000-0  60369-3 0  9991
2 63237  97.3982  21.1221 0004279 302.6918  57.3910 15.30631391 63524
TEVEL2-7
1 63238U 25052AE  26126.69312013  .00012982  00000-0  44379-3 0  9990
2 63238  97.3982  22.0652 0004316 297.8131  62.2672 15.30398916 63676
TEVEL2-8
1 63239U 25052AF  26126.24320891  .00015003  00000-0  51282-3 0  9993
2 63239  97.3983  21.5951 0004304 300.9661  59.1156 15.30368656 63608
HYDRA-W
1 63490U 25052BL  26113.93882235  .05662091  24406-5  29537-2 0  9997
2 63490  97.3690  18.2798 0008685 203.5899 156.4993 16.20186780 62336
HADES-ICM (SO-125)
1 63492U 25052BN  26125.23154483  .00799001  00000-0  30672-2 0  9990
2 63492  97.3785  28.6812 0006494 160.2566 199.8957 15.85446468 64000
SPIRONE
1 66657U 25274H   26126.78176625  .00001700  00000-0  16718-3 0  9993
2 66657  97.7473  56.6731 0012875 145.8219 214.3832 14.93378427 24041
K-HERO
1 66660U 25274L   26126.79806236  .00001918  00000-0  18585-3 0  9991
2 66660  97.7475  56.8193 0014696 151.0484 209.1554 14.93804670 24055
SNUGLITE-III DURI
1 66661U 25274M   26126.78718706  .00001335  00000-0  13076-3 0  9998
2 66661  97.7478  56.8276 0015238 152.0237 208.1805 14.93861584 24056
SilverSat
1 66909U 98067XV  26113.44966717  .07226154  12288-4  11979-2 0  9998
2 66909  51.6027 190.0749 0007952 333.4666  26.5949 16.32457272 22308
SAKHACUBE-CHOLBON
1 67290U 25313AU  26126.74265828  .00008919  00000-0  36895-3 0  9998
2 67290  97.3933 202.3184 0010664 136.8595 223.3480 15.24137905 19665
RS95S (QMR-KWT-2)
1 67291U 25313AV  26126.63307311  .00012497  00000-0  49933-3 0  9994
2 67291  97.3936 202.3101 0010412 136.9098 223.2957 15.25215528 19654
Ten-Koh2
1 68261U 25241B   26126.36554098  .00005886  00000-0  25793-3 0  9990
2 68261  51.6502 158.6033 0006035  11.4956 348.6158 15.23365507  8538
JACK-002
1 68417U 26067B   26126.86117618  .00005368  00000-0  26059-3 0  9999
2 68417  97.4545  85.9882 0004008  77.7246 282.4437 15.18884141  5676
DISCO 2
1 68431U 26067R   26126.80628575  .00007855  00000-0  38409-3 0  9993
2 68431  97.4584  85.9267 0004185 117.5365 242.6295 15.18482366  5665
HADES-SA (SpinnyONE)
1 68446U 26067AG  26126.76805378  .00015899  00000-0  79036-3 0  9990
2 68446  97.4400  85.7388 0006087 199.1932 160.9073 15.17710775  5640
PARUS-6U1
1 68456U 26067AS  26126.83830279  .00005306  00000-0  27113-3 0  9998
2 68456  97.4533  85.8605 0005115 188.0827 172.0325 15.17090683  5667
SAL-E
1 68458U 26067AU  26126.83803604  .00006949  00000-0  35303-3 0  9996
2 68458  97.4458  85.8270 0005014 198.2049 161.9006 15.17180860  5660
FSI-SAT 2
1 68792U 26088A   26126.37831763  .00004274  00000-0  29299-3 0  9992
2 68792  97.5014 276.7112 0013461 248.2388 111.7407 15.06490093  1993
OrigamiSat 2
1 68795U 26088D   26126.36537850  .00004140  00000-0  27278-3 0  9991
2 68795  97.5029 276.7298 0015005 219.9037 140.1090 15.07960369  1992
ARICA 2
1 68796U 26088E   26126.36447947  .00005209  00000-0  34099-3 0  9995
2 68796  97.5015 276.7272 0015096 218.0813 141.9350 15.08079317  1995
WASEDA-SAT-ZERO-II
1 68797U 26088F   26126.36405833  .00007039  00000-0  45838-3 0  9990
2 68797  97.5002 276.7273 0014994 217.9541 142.0632 15.08152938  1991
MANGARO-II-Piscus
1 68798U 26088G   26126.49368161  .00004718  00000-0  30566-3 0  9990
2 68798  97.5023 276.8633 0018348 220.9978 138.9872 15.08470902  2019
IO-86
1 40931U          25360.30710720  .00000000  00000-0  12800-3 0    00
2 40931   6.0006 332.5373 0012733 338.8432   8.1437 14.79075515    01
LILIUM-4                
1 71922C 26067AC  26089.50133053 -.00014632  00000+0 -74472-3 0    04
2 71922  97.4497  49.1617 0004341   5.9603 355.7042 15.16896692    16
